| time (UTC) | temp C | wind direction | speed KPH | gust KPH | rain 1hr cm | rain 24hr cm | rain mn cm | humidity % | barometer mb |
| 20260508211543 | 25 | 146 | 8.0 | 20.9 | 0.00 | 0.00 | 0.00 | 76 | 1009.8 |
| 20260508211034 | 25 | 133 | 9.7 | 20.9 | 0.00 | 0.00 | 0.00 | 77 | 1009.9 |
| 20260508210534 | 25 | 118 | 8.0 | 16.1 | 0.00 | 0.00 | 0.00 | 78 | 1009.9 |
| 20260508210048 | 24 | 168 | 9.7 | 17.7 | 0.00 | 0.00 | 0.00 | 78 | 1010.1 |
| 20260508205533 | 23 | 153 | 8.0 | 17.7 | 0.00 | 0.00 | 0.00 | 79 | 1010.1 |
| 20260508205034 | 23 | 164 | 9.7 | 19.3 | 0.00 | 0.00 | 0.00 | 80 | 1010.2 |
| 20260508204551 | 23 | 141 | 11.3 | 19.3 | 0.00 | 0.00 | 0.00 | 79 | 1010.4 |
| 20260508204033 | 23 | 149 | 9.7 | 19.3 | 0.00 | 0.00 | 0.00 | 79 | 1010.4 |
| 20260508203533 | 24 | 191 | 8.0 | 19.3 | 0.00 | 0.00 | 0.00 | 80 | 1010.4 |
| 20260508203054 | 24 | 168 | 9.7 | 19.3 | 0.00 | 0.00 | 0.00 | 79 | 1010.5 |
| 20260508202535 | 24 | 110 | 6.4 | 16.1 | 0.00 | 0.00 | 0.00 | 79 | 1010.4 |
| 20260508202033 | 24 | 161 | 9.7 | 16.1 | 0.00 | 0.00 | 0.00 | 78 | 1010.5 |
| 20260508201556 | 24 | 133 | 9.7 | 16.1 | 0.00 | 0.00 | 0.00 | 80 | 1010.6 |
| 20260508201034 | 24 | 154 | 8.0 | 19.3 | 0.00 | 0.00 | 0.00 | 79 | 1010.4 |
| 20260508200533 | 24 | 185 | 8.0 | 19.3 | 0.00 | 0.00 | 0.00 | 76 | 1010.4 |
| 20260508200100 | 25 | 140 | 9.7 | 19.3 | 0.00 | 0.00 | 0.00 | 75 | 1010.4 |
| 20260508195534 | 25 | 132 | 3.2 | 14.5 | 0.00 | 0.00 | 0.00 | 77 | 1010.5 |
| 20260508195034 | 25 | 131 | 6.4 | 12.9 | 0.00 | 0.00 | 0.00 | 77 | 1010.5 |
| 20260508194545 | 25 | 131 | 4.8 | 12.9 | 0.00 | 0.00 | 0.00 | 78 | 1010.4 |
| 20260508194035 | 24 | 157 | 4.8 | 14.5 | 0.00 | 0.00 | 0.00 | 78 | 1010.5 |
| 20260508193535 | 24 | 113 | 4.8 | 14.5 | 0.00 | 0.00 | 0.00 | 79 | 1010.5 |
| 20260508193054 | 24 | 140 | 6.4 | 17.7 | 0.00 | 0.00 | 0.00 | 79 | 1010.6 |
| 20260508192534 | 23 | 133 | 8.0 | 17.7 | 0.00 | 0.00 | 0.00 | 78 | 1010.7 |
| 20260508192034 | 23 | 154 | 9.7 | 17.7 | 0.00 | 0.00 | 0.00 | 80 | 1010.7 |
| 20260508191552 | 23 | 87 | 4.8 | 16.1 | 0.00 | 0.00 | 0.00 | 77 | 1010.7 |
| 20260508191038 | 24 | 102 | 4.8 | 17.7 | 0.00 | 0.00 | 0.00 | 77 | 1010.8 |
| 20260508190535 | 25 | 131 | 11.3 | 17.7 | 0.00 | 0.00 | 0.00 | 77 | 1010.8 |
| 20260508190052 | 24 | 127 | 6.4 | 14.5 | 0.00 | 0.00 | 0.00 | 78 | 1010.8 |
| 20260508185531 | 23 | 148 | 8.0 | 14.5 | 0.00 | 0.00 | 0.00 | 79 | 1010.9 |
| 20260508185030 | 23 | 119 | 4.8 | 17.7 | 0.00 | 0.00 | 0.00 | 81 | 1011.0 |
| 20260508184548 | 23 | 114 | 3.2 | 17.7 | 0.00 | 0.00 | 0.00 | 80 | 1011.2 |
| 20260508184038 | 23 | 113 | 6.4 | 17.7 | 0.00 | 0.00 | 0.00 | 78 | 1011.3 |
| 20260508183537 | 24 | 140 | 6.4 | 16.1 | 0.00 | 0.00 | 0.00 | 78 | 1011.2 |
| 20260508183049 | 23 | 133 | 4.8 | 16.1 | 0.00 | 0.00 | 0.00 | 82 | 1011.3 |
| 20260508182535 | 23 | 89 | 6.4 | 16.1 | 0.00 | 0.00 | 0.00 | 82 | 1011.3 |
| 20260508182034 | 23 | 149 | 4.8 | 17.7 | 0.00 | 0.00 | 0.00 | 80 | 1011.4 |
| 20260508181607 | 22 | 124 | 4.8 | 17.7 | 0.00 | 0.00 | 0.00 | 80 | 1011.5 |
| 20260508181036 | 22 | 119 | 3.2 | 12.9 | 0.00 | 0.00 | 0.00 | 81 | 1011.5 |
| 20260508180534 | 22 | 135 | 3.2 | 12.9 | 0.00 | 0.00 | 0.00 | 80 | 1011.6 |
| 20260508180104 | 23 | 82 | 6.4 | 16.1 | 0.00 | 0.00 | 0.00 | 79 | 1011.6 |
| 20260508175534 | 23 | 113 | 3.2 | 16.1 | 0.00 | 0.00 | 0.00 | 81 | 1011.7 |
| 20260508175035 | 22 | 72 | 6.4 | 16.1 | 0.00 | 0.00 | 0.00 | 82 | 1011.7 |
| 20260508174546 | 22 | 58 | 6.4 | 16.1 | 0.00 | 0.00 | 0.00 | 81 | 1011.8 |
| 20260508174036 | 22 | 142 | 4.8 | 12.9 | 0.00 | 0.00 | 0.00 | 83 | 1011.9 |
| 20260508173533 | 21 | 143 | 6.4 | 12.9 | 0.00 | 0.00 | 0.00 | 84 | 1012.0 |
| 20260508173050 | 21 | 135 | 4.8 | 9.7 | 0.00 | 0.00 | 0.00 | 84 | 1012.2 |
| 20260508172534 | 21 | 116 | 4.8 | 11.3 | 0.00 | 0.00 | 0.00 | 86 | 1012.4 |
| 20260508172035 | 21 | 0 | 1.6 | 11.3 | 0.00 | 0.00 | 0.00 | 84 | 1012.4 |
| 20260508171544 | 21 | 163 | 3.2 | 11.3 | 0.00 | 0.00 | 0.00 | 84 | 1012.5 |
| 20260508171034 | 21 | 0 | 3.2 | 11.3 | 0.00 | 0.00 | 0.00 | 83 | 1012.5 |
| 20260508170534 | 21 | 97 | 6.4 | 11.3 | 0.00 | 0.00 | 0.00 | 85 | 1012.5 |
| 20260508170046 | 20 | 40 | 3.2 | 11.3 | 0.00 | 0.00 | 0.00 | 85 | 1012.6 |
| 20260508165535 | 20 | 76 | 3.2 | 11.3 | 0.00 | 0.00 | 0.00 | 86 | 1012.8 |
| 20260508165035 | 20 | 78 | 1.6 | 11.3 | 0.00 | 0.00 | 0.00 | 86 | 1013.0 |
| 20260508164554 | 20 | 52 | 0.0 | 9.7 | 0.00 | 0.00 | 0.00 | 86 | 1013.1 |
| 20260508164034 | 20 | 0 | 3.2 | 11.3 | 0.00 | 0.00 | 0.00 | 86 | 1013.0 |
| 20260508163533 | 20 | 57 | 3.2 | 11.3 | 0.00 | 0.00 | 0.00 | 87 | 1013.0 |
| 20260508163048 | 20 | 29 | 4.8 | 8.0 | 0.00 | 0.00 | 0.00 | 87 | 1013.0 |
| 20260508162534 | 19 | 26 | 0.0 | 6.4 | 0.00 | 0.00 | 0.00 | 86 | 1013.1 |
| 20260508162034 | 19 | 352 | 0.0 | 8.0 | 0.00 | 0.00 | 0.00 | 87 | 1013.2 |
| 20260508161547 | 19 | 70 | 3.2 | 11.3 | 0.00 | 0.00 | 0.00 | 87 | 1013.2 |
| 20260508161031 | 19 | 43 | 1.6 | 11.3 | 0.00 | 0.00 | 0.00 | 88 | 1013.1 |
| 20260508160533 | 19 | 53 | 6.4 | 11.3 | 0.00 | 0.00 | 0.00 | 88 | 1013.1 |
| 20260508160047 | 19 | 340 | 3.2 | 6.4 | 0.00 | 0.00 | 0.00 | 86 | 1013.2 |
| 20260508155534 | 18 | 58 | 3.2 | 8.0 | 0.00 | 0.00 | 0.00 | 87 | 1013.2 |
| 20260508155030 | 18 | 29 | 1.6 | 8.0 | 0.00 | 0.00 | 0.00 | 88 | 1013.2 |
| 20260508154553 | 18 | 119 | 4.8 | 8.0 | 0.00 | 0.00 | 0.00 | 88 | 1013.3 |
| 20260508154033 | 18 | 340 | 3.2 | 9.7 | 0.00 | 0.00 | 0.00 | 88 | 1013.4 |
| 20260508153534 | 18 | 23 | 4.8 | 12.9 | 0.00 | 0.00 | 0.00 | 88 | 1013.5 |
| 20260508153051 | 18 | 353 | 6.4 | 12.9 | 0.00 | 0.00 | 0.00 | 89 | 1013.5 |
| 20260508152535 | 18 | 345 | 4.8 | 8.0 | 0.00 | 0.00 | 0.00 | 89 | 1013.6 |
| 20260508152033 | 18 | 35 | 3.2 | 6.4 | 0.00 | 0.00 | 0.00 | 90 | 1013.7 |
| 20260508151549 | 17 | 32 | 3.2 | 6.4 | 0.00 | 0.00 | 0.00 | 89 | 1013.8 |
| 20260508151034 | 17 | 357 | 1.6 | 6.4 | 0.00 | 0.00 | 0.00 | 88 | 1014.0 |
| 20260508150535 | 17 | 34 | 3.2 | 6.4 | 0.00 | 0.00 | 0.00 | 89 | 1014.1 |
| 20260508150046 | 17 | 60 | 3.2 | 6.4 | 0.00 | 0.00 | 0.00 | 88 | 1014.0 |
| 20260508145535 | 17 | 69 | 3.2 | 6.4 | 0.00 | 0.00 | 0.00 | 88 | 1013.9 |
| 20260508145033 | 17 | 42 | 3.2 | 8.0 | 0.00 | 0.00 | 0.00 | 88 | 1013.9 |
| 20260508144547 | 17 | 58 | 3.2 | 8.0 | 0.00 | 0.00 | 0.00 | 88 | 1014.1 |
| 20260508144033 | 17 | 29 | 4.8 | 11.3 | 0.00 | 0.00 | 0.00 | 88 | 1013.9 |
| 20260508143534 | 17 | 351 | 1.6 | 11.3 | 0.00 | 0.00 | 0.00 | 89 | 1014.1 |
| 20260508143045 | 17 | 26 | 3.2 | 11.3 | 0.00 | 0.00 | 0.00 | 89 | 1014.0 |
| 20260508142533 | 17 | 19 | 3.2 | 11.3 | 0.00 | 0.00 | 0.00 | 88 | 1013.9 |
| 20260508142033 | 17 | 72 | 6.4 | 11.3 | 0.00 | 0.00 | 0.00 | 88 | 1014.0 |
| 20260508141604 | 17 | 91 | 3.2 | 14.5 | 0.00 | 0.00 | 0.00 | 89 | 1014.1 |
| 20260508141033 | 17 | 73 | 6.4 | 14.5 | 0.00 | 0.00 | 0.00 | 89 | 1014.1 |
| 20260508140533 | 17 | 66 | 8.0 | 14.5 | 0.00 | 0.00 | 0.00 | 89 | 1014.0 |
| 20260508140058 | 17 | 27 | 4.8 | 11.3 | 0.00 | 0.00 | 0.00 | 89 | 1014.0 |
| 20260508135534 | 17 | 124 | 3.2 | 8.0 | 0.00 | 0.00 | 0.00 | 89 | 1013.9 |
| 20260508135034 | 17 | 35 | 3.2 | 6.4 | 0.00 | 0.00 | 0.00 | 89 | 1014.0 |
| 20260508134548 | 17 | 103 | 0.0 | 6.4 | 0.00 | 0.00 | 0.00 | 89 | 1014.2 |
| 20260508134033 | 17 | 103 | 3.2 | 6.4 | 0.00 | 0.00 | 0.00 | 89 | 1014.0 |
| 20260508133534 | 17 | 109 | 0.0 | 4.8 | 0.00 | 0.00 | 0.00 | 89 | 1014.0 |
| 20260508133049 | 17 | 0 | 1.6 | 6.4 | 0.00 | 0.00 | 0.00 | 89 | 1014.0 |
| 20260508132533 | 17 | 108 | 1.6 | 6.4 | 0.00 | 0.00 | 0.00 | 89 | 1014.0 |
| 20260508132033 | 17 | 133 | 3.2 | 11.3 | 0.00 | 0.00 | 0.00 | 89 | 1013.9 |
| 20260508131558 | 17 | 131 | 3.2 | 12.9 | 0.00 | 0.00 | 0.00 | 89 | 1013.7 |
| 20260508131034 | 17 | 103 | 4.8 | 12.9 | 0.00 | 0.00 | 0.00 | 89 | 1013.5 |
| 20260508130533 | 17 | 75 | 6.4 | 12.9 | 0.00 | 0.00 | 0.00 | 89 | 1013.2 |
| 20260508130050 | 17 | 91 | 4.8 | 9.7 | 0.00 | 0.00 | 0.00 | 89 | 1013.2 |
| 20260508125533 | 17 | 112 | 1.6 | 8.0 | 0.00 | 0.00 | 0.00 | 89 | 1013.2 |
| 20260508125034 | 17 | 112 | 1.6 | 8.0 | 0.00 | 0.00 | 0.00 | 89 | 1013.3 |
| 20260508124551 | 17 | 72 | 3.2 | 6.4 | 0.00 | 0.00 | 0.00 | 89 | 1013.2 |
| 20260508124034 | 17 | 80 | 4.8 | 6.4 | 0.00 | 0.00 | 0.00 | 88 | 1013.4 |
| 20260508123537 | 17 | 44 | 3.2 | 6.4 | 0.00 | 0.00 | 0.00 | 88 | 1013.4 |
| 20260508123051 | 17 | 330 | 0.0 | 3.2 | 0.00 | 0.00 | 0.00 | 88 | 1013.6 |
| 20260508122533 | 17 | 330 | 0.0 | 4.8 | 0.00 | 0.00 | 0.00 | 88 | 1013.6 |
| 20260508122035 | 17 | 330 | 0.0 | 6.4 | 0.00 | 0.00 | 0.00 | 88 | 1013.8 |
| 20260508121552 | 17 | 65 | 1.6 | 8.0 | 0.00 | 0.00 | 0.00 | 87 | 1014.0 |
| 20260508121034 | 17 | 64 | 3.2 | 8.0 | 0.00 | 0.00 | 0.00 | 87 | 1013.9 |
| 20260508120535 | 17 | 74 | 3.2 | 6.4 | 0.00 | 0.00 | 0.00 | 87 | 1013.7 |
| 20260508120056 | 17 | 350 | 1.6 | 8.0 | 0.00 | 0.00 | 0.00 | 87 | 1014.0 |
| 20260508115533 | 17 | 331 | 1.6 | 14.5 | 0.00 | 0.00 | 0.00 | 87 | 1014.1 |
| 20260508115034 | 17 | 56 | 6.4 | 14.5 | 0.00 | 0.00 | 0.00 | 87 | 1013.9 |
| 20260508114549 | 17 | 35 | 1.6 | 6.4 | 0.00 | 0.00 | 0.00 | 86 | 1013.9 |
| 20260508114033 | 17 | 73 | 3.2 | 6.4 | 0.00 | 0.00 | 0.00 | 86 | 1013.7 |
| 20260508113534 | 17 | 43 | 3.2 | 4.8 | 0.00 | 0.00 | 0.00 | 86 | 1013.9 |
| 20260508113057 | 17 | 0 | 1.6 | 4.8 | 0.00 | 0.00 | 0.00 | 86 | 1013.9 |
| 20260508112533 | 17 | 312 | 0.0 | 6.4 | 0.00 | 0.00 | 0.00 | 86 | 1014.2 |
| 20260508112033 | 17 | 0 | 1.6 | 6.4 | 0.00 | 0.00 | 0.00 | 85 | 1014.0 |
| 20260508111556 | 17 | 332 | 1.6 | 6.4 | 0.00 | 0.00 | 0.00 | 85 | 1013.9 |
| 20260508111035 | 17 | 332 | 3.2 | 9.7 | 0.00 | 0.00 | 0.00 | 85 | 1013.7 |
| 20260508110536 | 17 | 276 | 1.6 | 11.3 | 0.00 | 0.00 | 0.00 | 85 | 1013.8 |
| 20260508110058 | 17 | 301 | 4.8 | 11.3 | 0.00 | 0.00 | 0.00 | 85 | 1013.6 |
| 20260508105536 | 17 | 351 | 6.4 | 9.7 | 0.00 | 0.00 | 0.00 | 84 | 1013.7 |
| 20260508105034 | 17 | 340 | 1.6 | 9.7 | 0.00 | 0.00 | 0.00 | 84 | 1013.9 |
| 20260508104546 | 17 | 325 | 3.2 | 9.7 | 0.00 | 0.00 | 0.00 | 84 | 1013.7 |
| 20260508104033 | 17 | 12 | 4.8 | 9.7 | 0.00 | 0.00 | 0.00 | 84 | 1013.7 |
| 20260508103533 | 17 | 326 | 4.8 | 14.5 | 0.00 | 0.00 | 0.00 | 83 | 1013.8 |
| 20260508103055 | 17 | 345 | 3.2 | 14.5 | 0.00 | 0.00 | 0.00 | 84 | 1013.9 |
| 20260508102533 | 17 | 72 | 8.0 | 12.9 | 0.00 | 0.00 | 0.00 | 83 | 1013.4 |
| 20260508102035 | 17 | 84 | 6.4 | 11.3 | 0.00 | 0.00 | 0.00 | 83 | 1013.8 |
| 20260508101544 | 17 | 58 | 1.6 | 8.0 | 0.00 | 0.00 | 0.00 | 83 | 1014.1 |
| 20260508101035 | 17 | 12 | 1.6 | 9.7 | 0.00 | 0.00 | 0.00 | 83 | 1014.1 |
| 20260508100534 | 17 | 0 | 3.2 | 11.3 | 0.00 | 0.00 | 0.00 | 83 | 1013.9 |
| 20260508100048 | 17 | 58 | 4.8 | 11.3 | 0.00 | 0.00 | 0.00 | 83 | 1013.6 |
| 20260508095534 | 17 | 33 | 3.2 | 6.4 | 0.00 | 0.00 | 0.00 | 82 | 1013.7 |
| 20260508095033 | 17 | 0 | 1.6 | 6.4 | 0.00 | 0.00 | 0.00 | 82 | 1013.7 |
| 20260508094604 | 17 | 78 | 3.2 | 6.4 | 0.00 | 0.00 | 0.00 | 82 | 1013.6 |
| 20260508094033 | 17 | 330 | 0.0 | 3.2 | 0.00 | 0.00 | 0.00 | 81 | 1013.9 |
| 20260508093533 | 17 | 331 | 0.0 | 4.8 | 0.00 | 0.00 | 0.00 | 81 | 1014.1 |
| 20260508093046 | 17 | 331 | 0.0 | 4.8 | 0.00 | 0.00 | 0.00 | 81 | 1014.2 |
| 20260508092535 | 17 | 352 | 1.6 | 6.4 | 0.00 | 0.00 | 0.00 | 80 | 1014.1 |
| 20260508092033 | 17 | 22 | 1.6 | 8.0 | 0.00 | 0.00 | 0.00 | 80 | 1013.9 |
| 20260508091545 | 17 | 40 | 3.2 | 12.9 | 0.00 | 0.00 | 0.00 | 80 | 1013.9 |
| 20260508091033 | 17 | 29 | 3.2 | 17.7 | 0.00 | 0.00 | 0.00 | 79 | 1013.9 |
| 20260508090532 | 17 | 62 | 4.8 | 17.7 | 0.00 | 0.00 | 0.00 | 79 | 1013.7 |
| 20260508085534 | 17 | 106 | 4.8 | 11.3 | 0.00 | 0.00 | 0.00 | 78 | 1013.4 |
| 20260508085033 | 17 | 81 | 4.8 | 9.7 | 0.00 | 0.00 | 0.00 | 78 | 1013.7 |
| 20260508084548 | 17 | 16 | 4.8 | 12.9 | 0.00 | 0.00 | 0.00 | 77 | 1014.0 |
| 20260508084034 | 17 | 50 | 1.6 | 12.9 | 0.00 | 0.00 | 0.00 | 77 | 1014.0 |
| 20260508083534 | 17 | 54 | 6.4 | 12.9 | 0.00 | 0.00 | 0.00 | 77 | 1013.8 |
| 20260508083107 | 17 | 63 | 4.8 | 11.3 | 0.00 | 0.00 | 0.00 | 77 | 1014.0 |
| 20260508082608 | 17 | 45 | 3.2 | 9.7 | 0.00 | 0.00 | 0.00 | 76 | 1014.3 |
| 20260508082035 | 17 | 52 | 4.8 | 11.3 | 0.00 | 0.00 | 0.00 | 76 | 1014.1 |
| 20260508081547 | 17 | 60 | 4.8 | 11.3 | 0.00 | 0.00 | 0.00 | 76 | 1014.0 |
| 20260508081038 | 17 | 51 | 6.4 | 12.9 | 0.00 | 0.00 | 0.00 | 75 | 1014.0 |
| 20260508080535 | 17 | 45 | 4.8 | 12.9 | 0.00 | 0.00 | 0.00 | 75 | 1013.9 |
| 20260508080052 | 17 | 82 | 3.2 | 9.7 | 0.00 | 0.00 | 0.00 | 75 | 1014.0 |
| 20260508075533 | 17 | 46 | 3.2 | 9.7 | 0.00 | 0.00 | 0.00 | 75 | 1014.3 |
| 20260508075032 | 17 | 31 | 3.2 | 11.3 | 0.00 | 0.00 | 0.00 | 74 | 1014.3 |
| 20260508074553 | 17 | 51 | 4.8 | 11.3 | 0.00 | 0.00 | 0.00 | 74 | 1014.2 |
| 20260508074033 | 17 | 85 | 3.2 | 11.3 | 0.00 | 0.00 | 0.00 | 74 | 1014.3 |
| 20260508073534 | 17 | 72 | 4.8 | 11.3 | 0.00 | 0.00 | 0.00 | 74 | 1014.7 |
| 20260508073048 | 17 | 62 | 4.8 | 11.3 | 0.00 | 0.00 | 0.00 | 75 | 1014.5 |
| 20260508072533 | 18 | 70 | 3.2 | 14.5 | 0.00 | 0.00 | 0.00 | 75 | 1014.6 |
| 20260508072036 | 18 | 122 | 1.6 | 14.5 | 0.00 | 0.00 | 0.00 | 74 | 1014.8 |
| 20260508071548 | 18 | 0 | 6.4 | 14.5 | 0.00 | 0.00 | 0.00 | 74 | 1015.1 |
| 20260508071033 | 18 | 81 | 3.2 | 9.7 | 0.00 | 0.00 | 0.00 | 75 | 1014.9 |
| 20260508070533 | 18 | 99 | 3.2 | 4.8 | 0.00 | 0.00 | 0.00 | 75 | 1014.7 |
| 20260508070044 | 18 | 83 | 0.0 | 3.2 | 0.00 | 0.00 | 0.00 | 74 | 1015.0 |
| 20260508065533 | 18 | 0 | 0.0 | 3.2 | 0.00 | 0.00 | 0.00 | 74 | 1015.0 |
| 20260508065033 | 18 | 0 | 0.0 | 3.2 | 0.00 | 0.00 | 0.00 | 74 | 1014.9 |
| 20260508064551 | 18 | 0 | 0.0 | 3.2 | 0.00 | 0.00 | 0.00 | 74 | 1014.9 |
| 20260508064034 | 18 | 0 | 0.0 | 1.6 | 0.00 | 0.00 | 0.00 | 74 | 1015.0 |
| 20260508063534 | 18 | 83 | 0.0 | 1.6 | 0.00 | 0.00 | 0.00 | 74 | 1015.0 |
| 20260508063047 | 18 | 0 | 0.0 | 1.6 | 0.00 | 0.00 | 0.00 | 73 | 1015.0 |
| 20260508062533 | 18 | 0 | 0.0 | 1.6 | 0.00 | 0.00 | 0.00 | 73 | 1015.1 |
| 20260508062033 | 18 | 0 | 0.0 | 3.2 | 0.00 | 0.00 | 0.00 | 73 | 1015.2 |
| 20260508061554 | 18 | 0 | 0.0 | 4.8 | 0.00 | 0.00 | 0.00 | 73 | 1015.2 |
| 20260508061034 | 18 | 83 | 0.0 | 4.8 | 0.00 | 0.00 | 0.00 | 73 | 1014.9 |
| 20260508060533 | 18 | 83 | 1.6 | 6.4 | 0.00 | 0.00 | 0.00 | 73 | 1014.7 |
| 20260508060047 | 18 | 0 | 0.0 | 9.7 | 0.00 | 0.00 | 0.00 | 73 | 1014.7 |
| 20260508055534 | 18 | 70 | 1.6 | 9.7 | 0.00 | 0.00 | 0.00 | 72 | 1014.6 |
| 20260508055034 | 18 | 66 | 4.8 | 12.9 | 0.00 | 0.00 | 0.00 | 72 | 1014.4 |
| 20260508054544 | 18 | 137 | 3.2 | 16.1 | 0.00 | 0.00 | 0.00 | 72 | 1014.4 |
| 20260508054035 | 18 | 54 | 6.4 | 16.1 | 0.00 | 0.00 | 0.00 | 72 | 1014.2 |
| 20260508053534 | 18 | 62 | 8.0 | 14.5 | 0.00 | 0.00 | 0.00 | 72 | 1013.9 |
| 20260508053048 | 18 | 69 | 6.4 | 14.5 | 0.00 | 0.00 | 0.00 | 73 | 1014.1 |
| 20260508052534 | 18 | 67 | 1.6 | 9.7 | 0.00 | 0.00 | 0.00 | 73 | 1015.0 |
| 20260508052036 | 18 | 89 | 3.2 | 6.4 | 0.00 | 0.00 | 0.00 | 73 | 1014.7 |
| 20260508051553 | 18 | 0 | 0.0 | 6.4 | 0.00 | 0.00 | 0.00 | 72 | 1015.4 |
| 20260508051034 | 18 | 0 | 0.0 | 6.4 | 0.00 | 0.00 | 0.00 | 72 | 1015.8 |
| 20260508050534 | 18 | 294 | 3.2 | 6.4 | 0.00 | 0.00 | 0.00 | 71 | 1016.0 |
| 20260508050048 | 18 | 324 | 0.0 | 1.6 | 0.00 | 0.00 | 0.00 | 72 | 1016.0 |
| 20260508045533 | 18 | 0 | 0.0 | 1.6 | 0.00 | 0.00 | 0.00 | 71 | 1015.8 |
| 20260508045033 | 18 | 0 | 0.0 | 0.0 | 0.00 | 0.00 | 0.00 | 71 | 1015.7 |
| 20260508044546 | 18 | 0 | 0.0 | 4.8 | 0.00 | 0.00 | 0.00 | 71 | 1015.6 |
| 20260508044041 | 18 | 0 | 0.0 | 6.4 | 0.00 | 0.00 | 0.00 | 71 | 1015.4 |
| 20260508043533 | 18 | 318 | 1.6 | 8.0 | 0.00 | 0.00 | 0.00 | 70 | 1015.5 |
| 20260508043050 | 18 | 306 | 3.2 | 9.7 | 0.00 | 0.00 | 0.00 | 70 | 1015.6 |
| 20260508042534 | 18 | 315 | 3.2 | 11.3 | 0.00 | 0.00 | 0.00 | 70 | 1015.7 |
| 20260508042035 | 18 | 294 | 6.4 | 11.3 | 0.00 | 0.00 | 0.00 | 69 | 1015.8 |
| 20260508041550 | 18 | 303 | 3.2 | 9.7 | 0.00 | 0.00 | 0.00 | 70 | 1015.6 |
| 20260508041033 | 18 | 93 | 4.8 | 9.7 | 0.00 | 0.00 | 0.00 | 70 | 1014.8 |
| 20260508040534 | 18 | 101 | 1.6 | 12.9 | 0.00 | 0.00 | 0.00 | 69 | 1014.4 |
| 20260508040051 | 18 | 60 | 3.2 | 14.5 | 0.00 | 0.00 | 0.00 | 69 | 1014.2 |
| 20260508035535 | 18 | 95 | 6.4 | 14.5 | 0.00 | 0.00 | 0.00 | 69 | 1013.8 |
| 20260508035034 | 18 | 95 | 4.8 | 20.9 | 0.00 | 0.00 | 0.00 | 68 | 1014.0 |
| 20260508034551 | 18 | 75 | 9.7 | 20.9 | 0.00 | 0.00 | 0.00 | 68 | 1013.9 |
| 20260508034033 | 18 | 71 | 11.3 | 19.3 | 0.00 | 0.00 | 0.00 | 68 | 1013.7 |
| 20260508033533 | 18 | 85 | 8.0 | 16.1 | 0.00 | 0.00 | 0.00 | 68 | 1014.0 |
| 20260508033048 | 18 | 62 | 11.3 | 17.7 | 0.00 | 0.00 | 0.00 | 68 | 1014.2 |
| 20260508032534 | 18 | 69 | 9.7 | 17.7 | 0.00 | 0.00 | 0.00 | 69 | 1014.2 |
| 20260508032034 | 18 | 51 | 6.4 | 17.7 | 0.00 | 0.00 | 0.00 | 70 | 1014.6 |
| 20260508031551 | 18 | 24 | 4.8 | 12.9 | 0.00 | 0.00 | 0.00 | 71 | 1014.7 |
| 20260508031032 | 18 | 73 | 6.4 | 12.9 | 0.00 | 0.00 | 0.00 | 72 | 1014.6 |
| 20260508030532 | 18 | 78 | 6.4 | 12.9 | 0.00 | 0.00 | 0.00 | 73 | 1014.8 |
| 20260508030051 | 18 | 71 | 4.8 | 11.3 | 0.00 | 0.00 | 0.00 | 74 | 1015.1 |
| 20260508025537 | 19 | 60 | 3.2 | 6.4 | 0.00 | 0.00 | 0.00 | 74 | 1015.2 |
| 20260508025033 | 19 | 39 | 1.6 | 6.4 | 0.00 | 0.00 | 0.00 | 74 | 1015.4 |
| 20260508024551 | 18 | 39 | 1.6 | 6.4 | 0.00 | 0.00 | 0.00 | 74 | 1015.4 |
| 20260508024034 | 19 | 10 | 1.6 | 6.4 | 0.00 | 0.00 | 0.00 | 74 | 1015.3 |
| 20260508023533 | 19 | 10 | 1.6 | 4.8 | 0.00 | 0.00 | 0.00 | 74 | 1015.3 |
| 20260508023049 | 19 | 36 | 1.6 | 4.8 | 0.00 | 0.00 | 0.00 | 74 | 1015.0 |
| 20260508022532 | 19 | 11 | 1.6 | 4.8 | 0.00 | 0.00 | 0.00 | 74 | 1014.8 |
| 20260508022032 | 19 | 0 | 1.6 | 4.8 | 0.00 | 0.00 | 0.00 | 73 | 1014.8 |
| 20260508021548 | 19 | 11 | 0.0 | 3.2 | 0.00 | 0.00 | 0.00 | 73 | 1015.0 |
| 20260508021031 | 19 | 11 | 1.6 | 4.8 | 0.00 | 0.00 | 0.00 | 73 | 1015.0 |
| 20260508020530 | 19 | 11 | 1.6 | 4.8 | 0.00 | 0.00 | 0.00 | 73 | 1015.0 |
| 20260508020047 | 19 | 11 | 1.6 | 4.8 | 0.00 | 0.00 | 0.00 | 72 | 1015.0 |
| 20260508015533 | 19 | 11 | 1.6 | 4.8 | 0.00 | 0.00 | 0.00 | 72 | 1014.8 |
| 20260508015034 | 19 | 11 | 1.6 | 3.2 | 0.00 | 0.00 | 0.00 | 72 | 1014.7 |
| 20260508014552 | 19 | 11 | 0.0 | 3.2 | 0.00 | 0.00 | 0.00 | 71 | 1014.8 |
| 20260508014038 | 19 | 11 | 1.6 | 3.2 | 0.00 | 0.00 | 0.00 | 70 | 1014.6 |
| 20260508013533 | 19 | 11 | 0.0 | 3.2 | 0.00 | 0.00 | 0.00 | 70 | 1014.3 |
| 20260508013046 | 19 | 0 | 1.6 | 4.8 | 0.00 | 0.00 | 0.00 | 70 | 1014.3 |
| 20260508012533 | 19 | 11 | 1.6 | 4.8 | 0.00 | 0.00 | 0.00 | 70 | 1014.4 |
| 20260508012033 | 19 | 11 | 3.2 | 6.4 | 0.00 | 0.00 | 0.00 | 69 | 1014.5 |
| 20260508011545 | 19 | 11 | 1.6 | 8.0 | 0.00 | 0.00 | 0.00 | 68 | 1014.2 |
| 20260508011034 | 19 | 30 | 3.2 | 8.0 | 0.00 | 0.00 | 0.00 | 68 | 1014.2 |
| 20260508010537 | 19 | 45 | 4.8 | 12.9 | 0.00 | 0.00 | 0.00 | 68 | 1014.1 |
| 20260508010048 | 19 | 38 | 3.2 | 12.9 | 0.00 | 0.00 | 0.00 | 67 | 1014.1 |
| 20260508005535 | 19 | 40 | 4.8 | 11.3 | 0.00 | 0.00 | 0.00 | 66 | 1014.0 |
| 20260508005032 | 19 | 11 | 4.8 | 14.5 | 0.00 | 0.00 | 0.00 | 65 | 1013.9 |
| 20260508004547 | 19 | 91 | 6.4 | 20.9 | 0.00 | 0.00 | 0.00 | 65 | 1013.3 |
| 20260508004033 | 19 | 89 | 6.4 | 25.7 | 0.00 | 0.00 | 0.00 | 65 | 1013.0 |
| 20260508003532 | 19 | 101 | 8.0 | 25.7 | 0.00 | 0.00 | 0.00 | 65 | 1012.5 |
| 20260508003059 | 20 | 128 | 16.1 | 25.7 | 0.00 | 0.00 | 0.00 | 65 | 1012.2 |
| 20260508002533 | 20 | 81 | 12.9 | 29.0 | 0.00 | 0.00 | 0.00 | 65 | 1012.1 |
| 20260508002035 | 20 | 102 | 14.5 | 29.0 | 0.00 | 0.00 | 0.00 | 65 | 1012.1 |
| 20260508001548 | 20 | 105 | 17.7 | 29.0 | 0.00 | 0.00 | 0.00 | 65 | 1012.1 |
| 20260508001034 | 20 | 76 | 14.5 | 27.4 | 0.00 | 0.00 | 0.00 | 65 | 1012.1 |
| 20260508000536 | 20 | 92 | 16.1 | 29.0 | 0.00 | 0.00 | 0.00 | 64 | 1012.2 |
| 20260508000045 | 20 | 91 | 17.7 | 29.0 | 0.00 | 0.00 | 0.00 | 64 | 1012.8 |
| 20260507235534 | 20 | 70 | 19.3 | 27.4 | 0.00 | 0.00 | 0.00 | 64 | 1013.2 |
| 20260507235032 | 20 | 99 | 12.9 | 27.4 | 0.00 | 0.00 | 0.00 | 66 | 1013.5 |
| 20260507234548 | 20 | 93 | 16.1 | 25.7 | 0.00 | 0.00 | 0.00 | 65 | 1013.6 |
| 20260507234033 | 20 | 81 | 14.5 | 25.7 | 0.00 | 0.00 | 0.00 | 65 | 1013.7 |
| 20260507233533 | 20 | 98 | 16.1 | 24.1 | 0.00 | 0.00 | 0.00 | 66 | 1013.8 |
| 20260507233048 | 20 | 84 | 14.5 | 24.1 | 0.00 | 0.00 | 0.00 | 65 | 1014.1 |
| 20260507232532 | 20 | 88 | 12.9 | 19.3 | 0.00 | 0.00 | 0.00 | 65 | 1014.2 |
| 20260507232033 | 20 | 70 | 9.7 | 19.3 | 0.00 | 0.00 | 0.00 | 66 | 1014.3 |
| 20260507231548 | 20 | 74 | 11.3 | 25.7 | 0.00 | 0.00 | 0.00 | 66 | 1014.5 |
| 20260507231033 | 20 | 52 | 12.9 | 25.7 | 0.00 | 0.00 | 0.00 | 65 | 1014.7 |
| 20260507230533 | 20 | 75 | 14.5 | 25.7 | 0.00 | 0.00 | 0.00 | 65 | 1014.7 |
| 20260507230047 | 20 | 91 | 12.9 | 25.7 | 0.00 | 0.00 | 0.00 | 66 | 1014.7 |
| 20260507225532 | 20 | 51 | 14.5 | 22.5 | 0.00 | 0.00 | 0.00 | 66 | 1014.7 |
| 20260507225031 | 20 | 67 | 12.9 | 22.5 | 0.00 | 0.00 | 0.00 | 67 | 1015.0 |
| 20260507224602 | 20 | 77 | 11.3 | 24.1 | 0.00 | 0.00 | 0.00 | 67 | 1015.2 |
| 20260507224032 | 20 | 83 | 14.5 | 24.1 | 0.00 | 0.00 | 0.00 | 67 | 1015.2 |
| 20260507223532 | 20 | 69 | 14.5 | 24.1 | 0.00 | 0.00 | 0.00 | 67 | 1015.0 |
| 20260507223052 | 20 | 72 | 14.5 | 22.5 | 0.00 | 0.00 | 0.00 | 67 | 1014.9 |
| 20260507222533 | 20 | 69 | 14.5 | 24.1 | 0.00 | 0.00 | 0.00 | 66 | 1015.2 |
| 20260507222035 | 20 | 26 | 11.3 | 24.1 | 0.00 | 0.00 | 0.00 | 68 | 1015.3 |
| 20260507221551 | 20 | 80 | 14.5 | 24.1 | 0.00 | 0.00 | 0.00 | 68 | 1015.3 |
| 20260507221032 | 20 | 65 | 11.3 | 20.9 | 0.00 | 0.00 | 0.00 | 70 | 1015.4 |
| 20260507220537 | 20 | 76 | 14.5 | 20.9 | 0.00 | 0.00 | 0.00 | 69 | 1015.6 |
| 20260507220047 | 20 | 83 | 9.7 | 20.9 | 0.00 | 0.00 | 0.00 | 71 | 1015.4 |
| 20260507215533 | 20 | 91 | 8.0 | 20.9 | 0.00 | 0.00 | 0.00 | 71 | 1015.6 |
| 20260507215033 | 20 | 54 | 14.5 | 24.1 | 0.00 | 0.00 | 0.00 | 69 | 1015.6 |
| 20260507214550 | 21 | 61 | 14.5 | 24.1 | 0.00 | 0.00 | 0.00 | 69 | 1015.6 |
| 20260507214032 | 21 | 49 | 12.9 | 24.1 | 0.00 | 0.00 | 0.00 | 70 | 1015.4 |
| 20260507213534 | 20 | 54 | 9.7 | 19.3 | 0.00 | 0.00 | 0.00 | 73 | 1015.4 |
| 20260507213046 | 20 | 24 | 8.0 | 19.3 | 0.00 | 0.00 | 0.00 | 72 | 1015.8 |
| 20260507212533 | 20 | 22 | 11.3 | 19.3 | 0.00 | 0.00 | 0.00 | 72 | 1015.4 |
| 20260507212032 | 20 | 89 | 8.0 | 17.7 | 0.00 | 0.00 | 0.00 | 72 | 1015.6 |